FW5744 Carteret NJ US current weather conditions

sailwx.info

Wind from 281 at 9 knots gusting 19

Air temperature 6.1° C
Dewpoint 1.4° C

Last reported at 2019-Dec-15 05:05 UTC.
Time now 2019-Dec-15 05:36 UTC

Location: N 40°35' W 074°14'.
View on Google Maps.

See reports from other nearby stations

  
Tides and Currents Weather Stations Pressure Air Temp Water Temp Dewpoint Dewpoint Depression Visibility Wind Speed Wind Dir Waves Ship Positions
date/time (UTC)wind fromknots sea level pressurealtimeterstation pressurevisibilityair tempwater tempwave heightnotes
2019-Dec-15 05:05 281 9 gusting 19 6.1
2019-Dec-15 05:01 248 7 gusting 19 6.1
2019-Dec-15 04:55 247 6 gusting 20 6.1
2019-Dec-15 04:50 253 7 gusting 21 6.1
2019-Dec-15 04:46 280 9 gusting 18 6.1
2019-Dec-15 04:40 270 6 gusting 19 6.1
2019-Dec-15 04:35 256 7 gusting 19 6.1
2019-Dec-15 04:31 251 8 gusting 16 6.1
2019-Dec-15 04:25 252 7 gusting 16 6.1
2019-Dec-15 04:20 285 6 gusting 20 6.1
2019-Dec-15 04:16 247 9 gusting 20 6.1
2019-Dec-15 04:10 230 8 gusting 17 6.1
2019-Dec-15 04:00 245 6 gusting 21 6.1
2019-Dec-15 03:55 267 11 gusting 21 6.7
2019-Dec-15 03:50 249 6 gusting 14 6.7
2019-Dec-15 03:46 262 6 gusting 13 6.7
2019-Dec-15 03:40 226 5 gusting 15 6.7
2019-Dec-15 03:35 276 6 gusting 18 6.7
2019-Dec-15 03:30 285 6 gusting 19 6.7
2019-Dec-15 03:25 249 6 gusting 22 6.7
2019-Dec-15 03:20 265 8 gusting 22 6.7
2019-Dec-15 03:10 285 9 gusting 21 7.2
2019-Dec-15 03:00 272 8 gusting 20 7.2
2019-Dec-15 02:55 245 10 gusting 18 7.2
2019-Dec-15 02:50 260 8 gusting 18 7.2
2019-Dec-15 02:40 276 10 gusting 19 7.8
2019-Dec-15 02:35 246 8 gusting 15 7.8
2019-Dec-15 02:25 262 5 gusting 20 7.8
2019-Dec-15 02:20 271 10 gusting 20 7.8
2019-Dec-15 02:15 243 6 gusting 25 7.8
2019-Dec-15 02:10 274 10 gusting 25 8.3
2019-Dec-15 02:05 264 10 gusting 23 8.3
2019-Dec-15 02:00 287 9 gusting 22 8.3
2019-Dec-15 01:55 236 7 gusting 20 8.3
2019-Dec-15 01:50 282 8 gusting 19 8.9
2019-Dec-15 01:45 266 7 gusting 22 8.9
2019-Dec-15 01:40 224 9 gusting 22 8.9
2019-Dec-15 01:35 245 7 gusting 18 8.9
2019-Dec-15 01:26 253 10 gusting 19 8.9
2019-Dec-15 01:20 233 9 gusting 19 8.9
2019-Dec-15 01:17 262 7 gusting 19 9.4
2019-Dec-15 01:10 239 8 gusting 18 9.4
2019-Dec-15 01:06 235 7 gusting 17 9.4
2019-Dec-15 01:01 272 7 gusting 18 9.4
2019-Dec-15 00:55 297 9 gusting 17 9.4
2019-Dec-15 00:50 245 8 gusting 18 9.4
2019-Dec-15 00:47 264 8 gusting 19 9.4
2019-Dec-15 00:40 237 9 gusting 19 9.4
2019-Dec-15 00:36 259 9 gusting 18 10.0
2019-Dec-15 00:32 237 8 gusting 14 10.0
2019-Dec-15 00:25 225 7 gusting 14 10.0
2019-Dec-15 00:21 227 8 gusting 14 10.0
2019-Dec-15 00:17 301 6 gusting 22 10.0
2019-Dec-15 00:11 264 10 gusting 22 10.0
2019-Dec-15 00:05 263 7 gusting 15 10.0
2019-Dec-15 00:03 232 8 gusting 13 10.0
2019-Dec-14 23:55 359 6 gusting 13 10.0
2019-Dec-14 23:50 233 7 gusting 14 10.0
2019-Dec-14 23:46 318 6 gusting 14 10.0
2019-Dec-14 23:40 262 5 gusting 14 10.0
2019-Dec-14 23:35 254 7 gusting 19 10.0
2019-Dec-14 23:31 224 5 gusting 18 10.0
2019-Dec-14 23:25 253 9 gusting 18 10.0
2019-Dec-14 23:20 241 6 gusting 18 10.0
2019-Dec-14 23:15 308 6 gusting 15 10.0
2019-Dec-14 23:11 247 5 gusting 15 10.6
2019-Dec-14 23:05 249 6 gusting 12 10.6
2019-Dec-14 23:02 246 6 gusting 13 10.6
2019-Dec-14 22:55 241 6 gusting 13 10.6
2019-Dec-14 22:50 265 6 gusting 11 10.6
2019-Dec-14 22:46 281 6 gusting 13 11.1
2019-Dec-14 22:40 248 4 gusting 14 11.1
2019-Dec-14 22:35 237 7 gusting 15 11.1
2019-Dec-14 22:33 359 7 gusting 15 11.1
2019-Dec-14 22:25 227 6 gusting 13 11.1
2019-Dec-14 22:20 260 6 gusting 15 11.1
2019-Dec-14 22:16 239 6 gusting 15 11.7
2019-Dec-14 22:10 272 6 gusting 13 11.7
2019-Dec-14 22:05 239 5 gusting 14 11.7
2019-Dec-14 22:02 233 6 gusting 14 12.2
2019-Dec-14 21:55 225 6 gusting 12 12.2
2019-Dec-14 21:50 242 6 gusting 12 12.2
2019-Dec-14 21:46 245 6 gusting 15 12.2
2019-Dec-14 21:40 222 7 gusting 15 12.2
2019-Dec-14 21:35 235 7 gusting 13 12.2
2019-Dec-14 21:31 248 6 gusting 13 12.8
2019-Dec-14 21:25 226 6 gusting 18 12.8
2019-Dec-14 21:20 266 6 gusting 18 12.8
2019-Dec-14 21:05 208 4 gusting 10 12.8
2019-Dec-14 21:01 262 4 gusting 10 12.8
2019-Dec-14 20:55 249 3 gusting 9 13.3
2019-Dec-14 20:50 232 4 gusting 9 13.3
2019-Dec-14 20:46 244 2 gusting 10 13.3
2019-Dec-14 20:40 219 5 gusting 10 13.3
2019-Dec-14 20:35 210 3 gusting 11 13.3
2019-Dec-14 20:30 178 6 gusting 11 13.3
2019-Dec-14 20:25 211 5 gusting 13 13.3
2019-Dec-14 20:20 174 6 gusting 13 13.3
2019-Dec-14 20:17 152 5 gusting 10 12.8
2019-Dec-14 20:10 179 5 gusting 8 12.8
2019-Dec-14 20:05 183 4 gusting 8 12.2
2019-Dec-14 20:00 156 3 gusting 5 12.2
2019-Dec-14 19:55 151 2 gusting 5 11.7
2019-Dec-14 19:50 164 2 gusting 7 11.7
2019-Dec-14 19:45 121 4 gusting 7 11.7
2019-Dec-14 19:40 112 2 gusting 6 11.7
2019-Dec-14 19:35 140 2 gusting 6 11.7
2019-Dec-14 19:31 111 3 gusting 6 11.1
2019-Dec-14 19:25 124 3 gusting 8 11.1
2019-Dec-14 19:20 126 4 gusting 8 11.1
2019-Dec-14 19:10 130 1 gusting 7 11.1
2019-Dec-14 19:05 152 3 gusting 7 11.1
2019-Dec-14 18:55 114 1 gusting 6 11.1
2019-Dec-14 18:50 062 1 gusting 6 11.7
2019-Dec-14 18:45 104 2 gusting 6 11.7
2019-Dec-14 18:40 104 2 gusting 6 11.7
2019-Dec-14 18:35 100 1 gusting 8 11.7
2019-Dec-14 18:30 127 3 gusting 8 11.7
2019-Dec-14 18:25 117 3 gusting 8 11.7
2019-Dec-14 18:20 114 0 gusting 2 11.1
2019-Dec-14 18:15 060 0 gusting 2 11.1
2019-Dec-14 18:05 059 11.1
2019-Dec-14 17:55 060 1 gusting 4 11.1
2019-Dec-14 17:50 070 1 gusting 5 11.1
2019-Dec-14 17:45 060 1 gusting 5 10.6
2019-Dec-14 17:40 073 1 gusting 5 11.1
2019-Dec-14 17:31 089 1 gusting 4 10.6
2019-Dec-14 17:26 049 2 gusting 5 10.6
2019-Dec-14 17:20 052 1 gusting 5 10.6
2019-Dec-14 17:18 070 1 gusting 5 10.6
2019-Dec-14 17:10 055 3 gusting 7 10.6
2019-Dec-14 17:06 078 3 gusting 7 10.6
2019-Dec-14 17:01 092 3 gusting 7 10.6
2019-Dec-14 16:55 043 3 gusting 6 10.6
2019-Dec-14 16:50 029 2 gusting 5 10.6
2019-Dec-14 16:46 024 2 gusting 7 10.6
2019-Dec-14 16:41 078 3 gusting 7 10.6
2019-Dec-14 16:35 070 2 gusting 5 10.6
2019-Dec-14 16:31 070 2 gusting 5 10.0
2019-Dec-14 16:25 047 2 gusting 6 10.0
2019-Dec-14 16:20 046 1 gusting 6 10.0
2019-Dec-14 16:17 031 2 gusting 6 10.0
2019-Dec-14 16:10 057 1 gusting 6 10.6
2019-Dec-14 16:06 099 1 gusting 4 10.0
2019-Dec-14 16:05 073 2 gusting 5 10.0
2019-Dec-14 15:55 073 2 gusting 5 10.6
2019-Dec-14 15:50 059 1 gusting 4 10.0
2019-Dec-14 15:47 071 1 gusting 4 10.6
2019-Dec-14 15:40 073 2 gusting 4 10.6
2019-Dec-14 15:35 048 0 gusting 4 10.0
2019-Dec-14 15:32 073 1 gusting 4 10.0
2019-Dec-14 15:25 030 2 gusting 4 10.0
2019-Dec-14 15:20 032 0 gusting 2 10.0
2019-Dec-14 15:17 070 0 gusting 2 10.0
2019-Dec-14 15:10 015 10.0
2019-Dec-14 15:05 041 0 gusting 2 10.0
2019-Dec-14 15:01 050 0 gusting 2 10.0
2019-Dec-14 14:55 041 0 gusting 1 10.0
2019-Dec-14 14:50 042 10.0
2019-Dec-14 14:46 042 9.4
2019-Dec-14 14:40 046 9.4
2019-Dec-14 14:35 064 0 gusting 2 9.4
2019-Dec-14 14:31 050 9.4
2019-Dec-14 14:25 050 9.4
2019-Dec-14 14:20 046 9.4
2019-Dec-14 14:16 032 0 gusting 1 9.4
2019-Dec-14 14:10 043 9.4
2019-Dec-14 14:05 034 1 gusting 3 9.4
2019-Dec-14 14:01 045 0 gusting 3 9.4
2019-Dec-14 13:55 023 0 gusting 5 9.4
2019-Dec-14 13:50 041 1 gusting 5 9.4
2019-Dec-14 13:46 048 1 gusting 4 9.4
2019-Dec-14 13:40 038 1 gusting 3 9.4
2019-Dec-14 13:35 035 1 gusting 3 9.4
2019-Dec-14 13:31 058 1 gusting 4 9.4
2019-Dec-14 13:25 051 1 gusting 4 9.4
2019-Dec-14 13:20 065 1 gusting 3 9.4
2019-Dec-14 13:16 060 0 gusting 3 9.4
2019-Dec-14 13:10 064 0 gusting 3 9.4
2019-Dec-14 13:05 069 1 gusting 3 9.4
2019-Dec-14 13:00 060 0 gusting 3 9.4
2019-Dec-14 12:55 053 1 gusting 3 9.4
2019-Dec-14 12:51 023 0 gusting 2 9.4
2019-Dec-14 12:46 029 9.4
2019-Dec-14 12:40 019 0 gusting 3 9.4
2019-Dec-14 12:35 333 0 gusting 3 9.4
2019-Dec-14 12:30 330 0 gusting 4 9.4
2019-Dec-14 12:25 320 2 gusting 4 8.9
2019-Dec-14 12:20 008 1 gusting 4 9.4
2019-Dec-14 12:16 348 2 gusting 6 9.4
2019-Dec-14 12:10 016 3 gusting 6 9.4
2019-Dec-14 12:05 313 2 gusting 4 9.4
2019-Dec-14 11:55 320 0 gusting 4 9.4
2019-Dec-14 11:50 359 0 gusting 4 9.4
2019-Dec-14 11:40 043 2 gusting 4 9.4
2019-Dec-14 11:35 050 1 gusting 4 9.4
2019-Dec-14 11:30 041 1 gusting 6 9.4
2019-Dec-14 11:25 359 2 gusting 7 9.4
2019-Dec-14 11:20 308 2 gusting 7 9.4
2019-Dec-14 10:55 037 2 gusting 4 9.4
2019-Dec-14 10:50 028 1 gusting 5 9.4
2019-Dec-14 10:45 056 1 gusting 5 9.4
2019-Dec-14 10:40 033 2 gusting 5 9.4
2019-Dec-14 10:35 078 1 gusting 5 9.4
2019-Dec-14 10:25 043 3 gusting 7 9.4
2019-Dec-14 10:20 049 3 gusting 7 9.4
2019-Dec-14 10:10 027 2 gusting 6 9.4
2019-Dec-14 10:05 070 2 gusting 5 9.4
2019-Dec-14 10:00 021 1 gusting 7 9.4
2019-Dec-14 09:51 047 2 gusting 8 9.4
2019-Dec-14 09:47 042 4 gusting 8 9.4
2019-Dec-14 09:41 015 3 gusting 9 9.4
2019-Dec-14 09:35 027 4 gusting 9 9.4
2019-Dec-14 09:32 015 3 gusting 6 9.4
2019-Dec-14 09:25 010 3 gusting 6 10.0
2019-Dec-14 09:21 337 2 gusting 6 10.0
2019-Dec-14 09:02 019 2 gusting 7 10.0
2019-Dec-14 08:50 033 3 gusting 6 10.0
2019-Dec-14 08:47 027 3 gusting 7 10.0
2019-Dec-14 08:40 025 3 gusting 8 10.0
2019-Dec-14 08:36 045 2 gusting 12 10.0
2019-Dec-14 08:31 041 5 gusting 12 10.0
2019-Dec-14 08:26 048 3 gusting 10 10.0
2019-Dec-14 08:20 089 4 gusting 10 10.0
2019-Dec-14 08:16 033 2 gusting 10 10.0
2019-Dec-14 08:10 063 3 gusting 10 10.0
2019-Dec-14 08:05 022 2 gusting 10 10.0
2019-Dec-14 08:01 045 5 gusting 10 10.0
2019-Dec-14 07:55 030 3 gusting 8 10.0
2019-Dec-14 07:50 305 1 gusting 8 10.0
2019-Dec-14 07:47 035 3 gusting 8 10.0
2019-Dec-14 07:40 056 3 gusting 8 9.4
2019-Dec-14 07:35 036 3 gusting 9 9.4
2019-Dec-14 07:31 080 3 gusting 9 9.4
2019-Dec-14 07:25 024 3 gusting 8 9.4
2019-Dec-14 07:20 016 4 gusting 10 9.4
2019-Dec-14 07:16 027 5 gusting 10 9.4
2019-Dec-14 07:10 023 4 gusting 8 9.4
2019-Dec-14 07:06 029 3 gusting 9 9.4
2019-Dec-14 07:01 029 4 gusting 13 9.4
2019-Dec-14 06:55 037 6 gusting 13 9.4
2019-Dec-14 06:50 040 5 gusting 13 9.4
2019-Dec-14 06:47 359 4 gusting 11 9.4
2019-Dec-14 06:40 024 5 gusting 11 9.4
2019-Dec-14 06:35 039 5 gusting 10 9.4
2019-Dec-14 06:30 064 4 gusting 14 9.4
2019-Dec-14 06:25 021 7 gusting 14 9.4
2019-Dec-14 06:20 065 6 gusting 13 9.4
2019-Dec-14 06:10 033 6 gusting 12 9.4
2019-Dec-14 06:05 004 4 gusting 11 9.4
2019-Dec-14 06:00 052 4 gusting 12 9.4
2019-Dec-14 05:55 354 6 gusting 12 9.4
2019-Dec-14 05:50 023 6 gusting 13 9.4
2019-Dec-14 05:45 064 6 gusting 15 9.4
2019-Dec-14 05:40 062 7 gusting 15 9.4
2019-Dec-14 05:35 010 4 gusting 10 9.4
2019-Dec-14 05:30 025 4 gusting 7 8.9
2019-Dec-14 05:25 024 3 gusting 6 8.9
2019-Dec-14 05:20 016 1 gusting 6 8.9
2019-Dec-14 05:10 034 3 gusting 6 8.9
2019-Dec-14 05:05 008 1 gusting 6 8.9
2019-Dec-14 04:55 023 3 gusting 10 8.9
2019-Dec-14 04:50 038 4 gusting 10 8.9
2019-Dec-14 04:40 043 2 gusting 6 8.3
2019-Dec-14 04:35 022 3 gusting 8 8.3
2019-Dec-14 04:33 020 3 gusting 6 8.3
2019-Dec-14 04:25 024 2 gusting 6 8.3
2019-Dec-14 04:20 031 2 gusting 6 8.3
2019-Dec-14 04:19 009 2 gusting 6 8.3
2019-Dec-14 04:11 025 3 gusting 6 8.3
2019-Dec-14 04:06 031 2 gusting 6 8.3
2019-Dec-14 04:02 039 2 gusting 6 8.3
2019-Dec-14 03:55 004 3 gusting 6 8.3
2019-Dec-14 03:50 040 1 gusting 5 8.3
2019-Dec-14 03:46 054 2 gusting 5 8.3
2019-Dec-14 03:40 050 2 gusting 6 8.3
2019-Dec-14 03:36 359 3 gusting 6 8.3
2019-Dec-14 03:32 052 2 gusting 6 7.8
2019-Dec-14 03:25 039 3 gusting 7 7.8
2019-Dec-14 03:20 056 2 gusting 6 7.8
2019-Dec-14 03:16 012 1 gusting 7 7.8
2019-Dec-14 03:10 020 2 gusting 7 7.8
2019-Dec-14 03:05 021 3 gusting 7 7.8
2019-Dec-14 03:03 037 2 gusting 8 7.8
2019-Dec-14 02:55 027 3 gusting 8 7.8
2019-Dec-14 02:51 343 3 gusting 7 7.8
2019-Dec-14 02:47 035 4 gusting 7 7.8
2019-Dec-14 02:40 042 2 gusting 5 7.8
2019-Dec-14 02:35 354 2 gusting 5 7.8
2019-Dec-14 02:31 062 2 gusting 5 7.8
2019-Dec-14 02:25 016 0 gusting 3 7.2
2019-Dec-14 02:20 047 1 gusting 4 7.2
2019-Dec-14 02:16 027 1 gusting 5 7.2
2019-Dec-14 02:10 359 1 gusting 5 7.2
2019-Dec-14 02:05 004 2 gusting 5 7.2
2019-Dec-14 02:01 008 7.2
2019-Dec-14 01:55 004 2 gusting 4 7.2
2019-Dec-14 01:50 034 1 gusting 5 7.2
2019-Dec-14 01:46 008 2 gusting 5 7.2
2019-Dec-14 01:40 359 2 gusting 5 7.2
2019-Dec-14 01:35 023 1 gusting 6 7.2
2019-Dec-14 01:31 030 2 gusting 6 7.2
2019-Dec-14 01:25 035 1 gusting 4 7.2
2019-Dec-14 01:20 016 1 gusting 5 7.2
2019-Dec-14 01:15 027 2 gusting 5 7.2
2019-Dec-14 01:10 009 1 gusting 7 7.2
2019-Dec-14 01:05 035 3 gusting 7 7.8
2019-Dec-14 00:55 035 4 gusting 8 7.8
2019-Dec-14 00:50 025 3 gusting 6 7.2
2019-Dec-14 00:45 009 2 gusting 4 7.8
2019-Dec-14 00:40 029 1 gusting 6 7.2
2019-Dec-14 00:35 034 2 gusting 8 7.2
2019-Dec-14 00:30 041 3 gusting 8 7.2
2019-Dec-14 00:20 021 3 gusting 6 7.2
2019-Dec-14 00:15 019 3 gusting 7 7.2
2019-Dec-14 00:10 029 4 gusting 7 6.7
2019-Dec-14 00:05 062 3 gusting 7 6.7
2019-Dec-14 00:00 058 4 gusting 6 6.7
2019-Dec-13 23:55 043 3 gusting 6 6.7
2019-Dec-13 23:50 055 2 gusting 6 6.7
2019-Dec-13 23:45 025 3 gusting 8 6.7
2019-Dec-13 23:40 067 3 gusting 8 6.7
2019-Dec-13 23:35 036 4 gusting 7 6.7
2019-Dec-13 23:30 034 4 gusting 7 6.7
2019-Dec-13 23:25 041 3 gusting 6 6.7
2019-Dec-13 23:20 048 1 gusting 6 6.7
2019-Dec-13 23:10 045 3 gusting 5 6.7
2019-Dec-13 23:05 068 3 gusting 5 6.7
2019-Dec-13 23:00 059 2 gusting 5 6.7
2019-Dec-13 22:55 079 1 gusting 6 6.7
2019-Dec-13 22:50 015 2 gusting 6 6.7
2019-Dec-13 22:40 038 2 gusting 7 6.7
2019-Dec-13 22:35 035 2 gusting 6 6.7
2019-Dec-13 22:31 029 3 gusting 7 6.7
2019-Dec-13 22:25 038 2 gusting 7 6.7
2019-Dec-13 22:20 040 2 gusting 6 6.7
2019-Dec-13 22:18 043 2 gusting 7 6.7
2019-Dec-13 22:10 028 3 gusting 7 6.1
2019-Dec-13 22:06 043 3 gusting 7 6.7
2019-Dec-13 22:02 037 4 gusting 7 6.7
2019-Dec-13 21:55 043 3 gusting 7 6.7
2019-Dec-13 21:50 041 3 gusting 9 6.7
2019-Dec-13 21:46 073 2 gusting 7 6.1
2019-Dec-13 21:41 058 3 gusting 8 6.1
2019-Dec-13 21:35 054 3 gusting 8 6.1
2019-Dec-13 21:33 056 3 gusting 8 6.1
2019-Dec-13 21:25 064 3 gusting 7 6.1
2019-Dec-13 21:20 026 3 gusting 7 6.1
2019-Dec-13 21:17 070 4 gusting 8 6.1
2019-Dec-13 21:10 075 3 gusting 8 6.1
2019-Dec-13 21:05 076 2 gusting 6 6.1
2019-Dec-13 21:02 046 2 gusting 5 6.1
2019-Dec-13 20:55 033 2 gusting 5 6.7
2019-Dec-13 20:51 048 1 gusting 6 6.7
2019-Dec-13 20:46 046 2 gusting 6 6.7
2019-Dec-13 20:40 054 2 gusting 5 6.7
2019-Dec-13 20:35 041 1 gusting 3 6.7
2019-Dec-13 20:31 033 2 gusting 4 6.7
2019-Dec-13 20:26 064 1 gusting 4 6.7
2019-Dec-13 20:20 028 2 gusting 4 6.7
2019-Dec-13 20:16 044 1 gusting 4 6.7
2019-Dec-13 20:10 038 0 gusting 5 6.7
2019-Dec-13 20:05 045 1 gusting 5 6.7
2019-Dec-13 20:01 036 2 gusting 5 6.7
2019-Dec-13 19:55 040 2 gusting 5 6.1
2019-Dec-13 19:50 014 2 gusting 4 6.1
2019-Dec-13 19:47 035 2 gusting 4 6.1
2019-Dec-13 19:40 008 2 gusting 6 6.1
2019-Dec-13 19:35 033 2 gusting 6 6.1
2019-Dec-13 19:33 039 0 gusting 4 6.1
2019-Dec-13 19:25 050 1 gusting 4 6.1
2019-Dec-13 19:20 043 2 gusting 4 6.1
2019-Dec-13 19:16 034 0 gusting 4 6.1
2019-Dec-13 19:10 043 1 gusting 6 6.1
2019-Dec-13 19:05 048 2 gusting 6 6.1
2019-Dec-13 19:01 038 3 gusting 6 6.1
2019-Dec-13 18:55 033 2 gusting 5 6.1
2019-Dec-13 18:50 030 2 gusting 4 6.1
2019-Dec-13 18:47 043 2 gusting 5 6.1
2019-Dec-13 18:40 045 2 gusting 5 6.1
2019-Dec-13 18:35 036 1 gusting 5 6.1
2019-Dec-13 18:30 033 1 gusting 5 6.1
2019-Dec-13 18:25 025 1 gusting 5 6.1
2019-Dec-13 18:20 031 2 gusting 5 6.1
2019-Dec-13 18:16 035 1 gusting 5 6.1
2019-Dec-13 18:10 047 2 gusting 6 6.1
2019-Dec-13 18:05 037 2 gusting 6 5.6
2019-Dec-13 18:00 032 2 gusting 5 5.6
2019-Dec-13 17:55 049 2 gusting 4 5.6
2019-Dec-13 17:50 029 2 gusting 5 5.6
2019-Dec-13 17:45 050 3 gusting 5 5.6
2019-Dec-13 17:40 043 2 gusting 5 5.6
2019-Dec-13 17:35 045 1 gusting 5 5.6
2019-Dec-13 17:31 041 2 gusting 5 5.6
2019-Dec-13 17:25 054 2 gusting 5 5.6
2019-Dec-13 17:20 029 1 gusting 5 5.6
2019-Dec-13 17:10 012 1 gusting 5 5.0
2019-Dec-13 17:05 055 1 gusting 6 5.0
2019-Dec-13 16:55 037 0 gusting 6 5.0
2019-Dec-13 16:50 060 0 gusting 4 5.0
2019-Dec-13 16:40 057 2 gusting 4 4.4
2019-Dec-13 16:35 061 2 gusting 4 4.4
2019-Dec-13 16:30 021 1 gusting 5 3.9
2019-Dec-13 16:25 050 2 gusting 5 3.9
2019-Dec-13 16:20 048 2 gusting 5 3.9
2019-Dec-13 16:15 029 1 gusting 5 3.9
2019-Dec-13 16:10 043 0 gusting 4 3.9
2019-Dec-13 16:05 039 1 gusting 5 3.9
2019-Dec-13 16:00 072 2 gusting 5 3.9
2019-Dec-13 15:55 040 1 gusting 5 3.9
2019-Dec-13 15:50 083 2 gusting 4 3.3
2019-Dec-13 15:36 061 3 gusting 7 3.3
2019-Dec-13 15:32 074 3 gusting 7 3.3
2019-Dec-13 15:26 058 1 gusting 5 3.3
2019-Dec-13 15:20 032 2 gusting 6 3.3
2019-Dec-13 15:17 055 2 gusting 7 3.3
2019-Dec-13 15:11 022 3 gusting 7 3.3
2019-Dec-13 15:05 042 2 gusting 6 3.3
2019-Dec-13 15:02 039 1 gusting 4 3.3
2019-Dec-13 14:55 058 1 gusting 4 2.8
2019-Dec-13 14:51 053 1 gusting 6 2.8
2019-Dec-13 14:49 043 2 gusting 7 2.8
2019-Dec-13 14:41 021 4 gusting 7 2.8
2019-Dec-13 14:36 044 2 gusting 5 2.8
2019-Dec-13 14:31 067 1 gusting 5 2.2
2019-Dec-13 14:25 035 1 gusting 6 2.2
2019-Dec-13 14:20 050 2 gusting 6 2.2
2019-Dec-13 14:16 015 1 gusting 4 2.2
2019-Dec-13 14:11 039 1 gusting 4 2.2
2019-Dec-13 14:05 011 2 gusting 5 2.2
2019-Dec-13 14:01 334 2 gusting 5 2.2
2019-Dec-13 13:56 008 1 gusting 4 2.2
2019-Dec-13 13:50 012 1 gusting 4 1.7
2019-Dec-13 13:47 359 1 gusting 3 1.7
2019-Dec-13 13:41 333 0 gusting 3 1.7
2019-Dec-13 13:36 331 1 gusting 3 1.7
2019-Dec-13 13:31 054 1.7
2019-Dec-13 13:25 041 0 gusting 4 1.7
2019-Dec-13 13:20 026 0 gusting 4 1.1
2019-Dec-13 13:16 359 0 gusting 3 1.1
2019-Dec-13 13:10 041 0 gusting 3 1.1
2019-Dec-13 13:05 070 0 gusting 4 1.1
2019-Dec-13 13:02 058 1 gusting 4 1.1
2019-Dec-13 12:55 035 2 gusting 4 1.1
2019-Dec-13 12:51 039 1 gusting 4 1.1
2019-Dec-13 12:46 045 0 gusting 3 1.1
2019-Dec-13 12:40 035 1 gusting 3 1.1
2019-Dec-13 12:35 023 0 gusting 2 1.1
2019-Dec-13 12:30 317 0 gusting 1 0.6
2019-Dec-13 12:25 022 0 gusting 1 0.6
2019-Dec-13 12:20 004 0.6
2019-Dec-13 12:16 359 0 gusting 2 0.6
2019-Dec-13 12:10 016 0.6
2019-Dec-13 12:05 016 0 gusting 3 0.6
2019-Dec-13 12:01 004 0 gusting 3 0.6
2019-Dec-13 11:55 343 1 gusting 3 0.6
2019-Dec-13 11:50 010 0 gusting 3 0.6
2019-Dec-13 11:45 018 1 gusting 3 0.6
2019-Dec-13 11:40 012 0 gusting 2 0.6
2019-Dec-13 11:35 027 0 gusting 3 -0.0
2019-Dec-13 11:30 027 0 gusting 3 -0.0
2019-Dec-13 11:25 048 0 gusting 4 -0.0
2019-Dec-13 11:20 322 1 gusting 4 -0.0
2019-Dec-13 11:16 031 -0.0
2019-Dec-13 11:10 040 0 gusting 3 -0.0
2019-Dec-13 11:05 039 0 gusting 3 -0.0
2019-Dec-13 10:55 029 1 gusting 3 -0.0
2019-Dec-13 10:50 025 0 gusting 3 -0.0
2019-Dec-13 10:40 029 0 gusting 2 0.6
2019-Dec-13 10:35 042 0 gusting 2 0.6
2019-Dec-13 10:25 052 0.6
2019-Dec-13 10:20 052 1 gusting 3 0.6
2019-Dec-13 10:10 039 0.6
2019-Dec-13 10:05 039 0 gusting 3 0.6
2019-Dec-13 10:00 023 0 gusting 4 0.6
2019-Dec-13 09:55 036 1 gusting 4 0.6
2019-Dec-13 09:50 035 1 gusting 3 0.6
2019-Dec-13 09:45 026 1 gusting 4 0.6
2019-Dec-13 09:40 020 0 gusting 3 0.6
2019-Dec-13 09:35 036 0 gusting 4 0.6
2019-Dec-13 09:30 048 2 gusting 4 0.6
2019-Dec-13 09:21 018 1 gusting 5 0.6
2019-Dec-13 09:17 048 1 gusting 5 0.6
2019-Dec-13 09:10 037 1 gusting 5 0.6
2019-Dec-13 09:06 059 1 gusting 4 0.6
2019-Dec-13 09:01 056 1 gusting 4 -0.0
2019-Dec-13 08:55 058 1 gusting 4 -0.0
2019-Dec-13 08:50 026 0 gusting 5 -0.0
2019-Dec-13 08:48 075 1 gusting 5 -0.0
2019-Dec-13 08:40 069 1 gusting 3 -0.0
2019-Dec-13 08:35 026 1 gusting 4 -0.0
2019-Dec-13 08:32 056 1 gusting 5 -0.0
2019-Dec-13 08:25 060 2 gusting 5 -0.0
2019-Dec-13 08:20 070 1 gusting 4 -0.0
2019-Dec-13 08:17 034 2 gusting 5 -0.6
2019-Dec-13 08:10 031 2 gusting 5 -0.6
2019-Dec-13 08:06 037 2 gusting 5 -0.6
2019-Dec-13 08:02 033 2 gusting 7 -0.6
2019-Dec-13 07:55 035 2 gusting 5 -0.6
2019-Dec-13 07:50 039 1 gusting 8 -0.6
2019-Dec-13 07:48 053 1 gusting 8 -0.6
2019-Dec-13 07:40 048 2 gusting 7 -0.6
2019-Dec-13 07:35 070 2 gusting 5 -0.6
2019-Dec-13 07:32 050 0 gusting 3 -0.6
2019-Dec-13 07:26 042 1 gusting 3 -0.6
2019-Dec-13 07:05 045 0 gusting 4 -1.1
2019-Dec-13 07:02 033 0 gusting 4 -1.7
2019-Dec-13 06:55 035 1 gusting 4 -1.7
2019-Dec-13 06:50 046 0 gusting 3 -1.7
2019-Dec-13 06:48 044 1 gusting 3 -1.7
2019-Dec-13 06:40 033 0 gusting 2 -1.7
2019-Dec-13 06:35 105 0 gusting 2 -1.7
2019-Dec-13 06:31 107 0 gusting 2 -1.7
2019-Dec-13 06:26 108 0 gusting 2 -1.7
2019-Dec-13 06:20 152 0 gusting 1 -1.7
2019-Dec-13 06:16 153 -1.7
2019-Dec-13 06:10 152 -1.7
2019-Dec-13 06:05 153 -1.7
2019-Dec-13 06:01 152 -1.7
2019-Dec-13 05:55 152 -1.7
2019-Dec-13 05:50 153 -1.7
2019-Dec-13 05:45 152 -1.7
2019-Dec-13 05:40 153 0 gusting 1 -1.7
2019-Dec-13 05:35 152 0 gusting 1 -1.7
2019-Dec-13 05:30 152 -2.2
2019-Dec-13 05:25 156 0 gusting 1 -2.2
2019-Dec-13 05:20 156 -2.2
2019-Dec-13 05:10 156 -2.2
2019-Dec-13 05:05 157 -2.2